This is the latest recevied weather packets stored in our database for station/object KI4FRU. If no packets are shown the sender has not sent any weather packets the latest 10 day(s).
| Time | Temp. | Humidity | Pressure | Rain* | Wind** | Luminosity | Snow |
|---|---|---|---|---|---|---|---|
| 1777723755 | 12.78° C | 81% | 1052.5 hPa | 0 mm | - | 23 W/m² | - |
| 1777723451 | 12.78° C | 83% | 1051.9 hPa | 0 mm | - | 30 W/m² | - |
| 1777723148 | 12.78° C | 82% | 1052 hPa | 0 mm | - | 27 W/m² | - |
| 1777722845 | 12.78° C | 83% | 1052 hPa | 0 mm | - | 20 W/m² | - |
| 1777722541 | 12.78° C | 83% | 1051.9 hPa | 0 mm | - | 23 W/m² | - |
| 1777722238 | 12.78° C | 83% | 1052.2 hPa | 0 mm | - | 16 W/m² | - |
| 1777721935 | 12.78° C | 85% | 1052.5 hPa | 0 mm | - | 14 W/m² | - |
| 1777721633 | 12.78° C | 83% | 1052.4 hPa | 0 mm | - | 17 W/m² | - |
| 1777721331 | 12.78° C | 85% | 1051.9 hPa | 0 mm | - | 13 W/m² | - |
| 1777721028 | 12.78° C | 84% | 1051.9 hPa | 0 mm | - | 9 W/m² | - |
| 1777720726 | 12.22° C | 84% | 1051.9 hPa | 0 mm | - | 13 W/m² | - |
| 1777720423 | 12.22° C | 86% | 1052 hPa | 0 mm | - | 8 W/m² | - |
| 1777720120 | 12.22° C | 88% | 1051.9 hPa | 0 mm | - | 7 W/m² | - |
| 1777719818 | 12.22° C | 90% | 1052 hPa | 0 mm | - | 8 W/m² | - |
| 1777719515 | 11.67° C | 92% | 1052 hPa | 0 mm | - | 4 W/m² | - |
| 1777719212 | 11.67° C | 96% | 1052 hPa | 0 mm | - | 3 W/m² | - |
| 1777718910 | 11.67° C | 98% | 1052 hPa | 0 mm | - | 2 W/m² | - |
| 1777718607 | 11.67° C | 99% | 1051.8 hPa | 0 mm | - | 1 W/m² | - |
| 1777718304 | 11.67° C | 99% | 1051.6 hPa | 0 mm | - | 1 W/m² | - |
| 1777718002 | 12.22° C | 99% | 1051.6 hPa | 0 mm | - | 1 W/m² | - |
| 1777717699 | 12.22° C | 99% | 1051.8 hPa | 0 mm | - | 0 W/m² | - |
| 1777717395 | 12.22° C | 99% | 1051.7 hPa | 0 mm | - | 0 W/m² | - |
| 1777717093 | 12.22° C | 99% | 1051.8 hPa | 0 mm | - | 0 W/m² | - |
| 1777716791 | 12.22° C | 99% | 1051.7 hPa | 0 mm | - | 0 W/m² | - |
| 1777716489 | 12.22° C | 99% | 1051.7 hPa | 0 mm | - | 0 W/m² | - |
* Rain latest hour (hover to see other rain measurements)
** Current wind speed in m/s (hover to see current wind gust speed)